Regional Weather Roundup
Issued by NWS Wakefield, VA

Home | Current Version | Previous Version | Text Only | Print | Product List | Glossary Off
Versions: 1 2 3 4 5 6 7 8 9 10 11 12 13 14 15 16 17 18 19 20 21 22 23 24 25 26 27 28 29 30 31 32 33 34 35 36 37 38 39 40 41 42 43 44 45 46 47 48 49 50
000 ASUS41 KAKQ 251210 RWRAKQ REGIONAL WEATHER ROUNDUP NATIONAL WEATHER SERVICE WAKEFIELD VA 800 AM EDT FRI JUL 25 2014 Note: "fair" indicates few or no clouds below 12,000 feet with no significant weather and/or obstructions to visibility. * = Denotes station may not report precipitation (e.g., rain,snow,etc.), thunder or fog. VAZ042-051-052>054-056-251300- NORTHERN VIRGINIA CITY SKY/WX TMP DP RH WIND PRES REMARKS WASH NATIONAL MOSUNNY 70 54 56 NE6 30.06R DULLES MOSUNNY 64 51 62 N6 30.07R FORT BELVOIR SUNNY 65 58 75 CALM 30.07R QUANTICO SUNNY 67 57 70 N9 30.07R FREDERICKSBRG* SUNNY 64 63 96 N3 30.06R STAFFORD* SUNNY 64 64 99 CALM 30.10R WARRENTON SUNNY 62 62 100 CALM 30.07R CULPEPER* SUNNY N/A N/A N/A CALM 30.08R MANASSAS* NOT AVBL LEESBURG* SUNNY 64 54 68 N6 30.08R WINCHESTER SUNNY 63 54 72 CALM 30.09R $$ VAZ048-049-060>072-079>083-251300- CENTRAL AND SOUTH CENTRAL VIRGINIA...AND NORTH CENTRAL NORTH CAROLINA CITY SKY/WX TMP DP RH WIND PRES REMARKS RICHMOND MOSUNNY 69 62 78 N6 30.06R CHESTERFIELD* SUNNY 68 57 68 NW5 30.08R HANOVER SUNNY 64 62 93 VRB3 30.08R TAPPAHANNOCK* SUNNY 67 62 82 CALM 30.06R CHARLOTTSVILLE MOSUNNY 64 62 93 CALM 30.09R ORANGE* SUNNY 64 61 88 CALM 30.09R LOUISA* SUNNY 64 61 88 N6 30.07R FARMVILLE* CLOUDY 64 64 100 CALM 30.06R FOG SOUTH HILL* CLOUDY 70 70 100 N6 30.12R ROANOKE RAPIDS CLOUDY 63 63 100 N5 30.05R RALEIGH FOG 69 66 90 NE7 30.06R VSB 1 $$ VAZ088>098-251300- SOUTHEAST VIRGINIA CITY SKY/WX TMP DP RH WIND PRES REMARKS NORFOLK SUNNY 75 62 64 N14 30.02R VIRGINIA BEACH MOSUNNY 74 67 78 N8 30.01R NORFOLK NAVAL MOSUNNY 74 68 81 N10 30.04R WEST POINT* SUNNY 70 64 83 N3 30.06R NEWPORT NEWS SUNNY 75 66 73 N6 30.04R LANGLEY AFB SUNNY 71 69 93 N8 30.02R FORT EUSTIS SUNNY 71 70 96 N6 30.02R WILLIAMSBURG* SUNNY 68 66 94 N3 30.05R FRANKLIN* CLOUDY 68 N/A N/A NW3 30.04R WAKEFIELD SUNNY 69 65 86 N3 30.05R $$ VAZ020-022-025-037-045-251300- WESTERN AND SOUTHWEST VIRGINIA CITY SKY/WX TMP DP RH WIND PRES REMARKS STAUNTON* PTSUNNY 65 59 81 N6 30.12R HOT SPRINGS VA PTSUNNY 56 50 79 E5 30.19R LYNCHBURG PTSUNNY 69 66 90 CALM 30.09R DANVILLE SUNNY 70 65 84 CALM 30.08R MARTINSVILLE SUNNY 68 66 93 CALM 30.10S ROANOKE MOSUNNY 65 62 90 CALM 30.11R BLACKSBURG CLOUDY 64 64 100 CALM N/A DUBLIN* PTSUNNY 63 61 95 CALM 30.13S MARION* MOSUNNY N/A N/A N/A CALM 30.16R HILLSVILLE* SUNNY 60 59 94 CALM 30.15R RICHLANDS* CLOUDY 61 59 94 NE3 30.13R FOG WISE* FOG 59 59 100 CALM 30.15R VSB 3/4 ABINGDON* PTSUNNY 62 61 98 E5 30.11S FOG $$ MDZ021>025-VAZ099-100-251300- SOUTHERN MARYLAND AND THE DELMARVA PENINSULA CITY SKY/WX TMP DP RH WIND PRES REMARKS PATUXENT RIVER SUNNY 71 58 63 N9 30.04R BAY BRIDGE APT N/A 68 54 60 N9 30.04S LEONARDTOWN SUNNY 66 59 77 CALM 30.06R DOVER SUNNY 65 56 72 NW10 30.02R GEORGETOWN SUNNY 66 56 70 VRB5 30.03R EASTON SUNNY 68 61 77 N3 30.07R CAMBRIDGE SUNNY 72 57 60 N6 30.03R SALISBURY NOT AVBL OCEAN CITY SUNNY 67 60 78 NW9 30.01R WALLOPS ISLAND MOSUNNY 68 59 73 N12 30.02R ACCOMACK* N/A 70 61 73 N7 30.02R $$ NCZ012>017-030>032-251300- EASTERN NORTH CAROLINA CITY SKY/WX TMP DP RH WIND PRES REMARKS ELIZABETH CITY SUNNY 73 69 87 NW8 30.02R AHOSKIE* PTSUNNY 68 66 93 N3 30.05R EDENTON* SUNNY 71 69 94 N5 30.03R CURRITUCK* MOSUNNY 72 70 92 NW5 30.02R KILL DEVIL HLS SUNNY 74 68 81 N3 29.99R MANTEO NOT AVBL CAPE HATTERAS PTSUNNY 74 71 91 VRB6 30.00R GOLDSBORO CLOUDY 68 68 99 NE6 30.02R WASHINGTON CLOUDY 70 67 92 NE5 30.03R GREENVILLE CLOUDY 70 68 94 N5 30.06R NEW BERN CLOUDY 70 67 90 NE6 30.04R WILMINGTON FOG 72 71 97 NE10 30.00R VSB 3/4 $$ VAZ048-251300- ELSEWHERE CITY SKY/WX TMP DP RH WIND PRES REMARKS HARRISBURG PA SUNNY 65 50 58 NW8 30.07R BALTIMORE MOSUNNY 65 54 67 CALM 30.05R ANNAPOLIS SUNNY 68 55 63 NW9 30.04R ANDREWS AFB SUNNY 65 55 67 N8 30.06R WILMINGTON DE SUNNY 66 54 65 N7 30.04R PHILADELPHIA MOSUNNY 67 52 58 N8 30.03R WILDWOOD NJ* SUNNY 68 55 64 NW7 30.02R ATLANTIC CITY SUNNY 66 56 70 N8 30.01R HENDERSON NC CLOUDY 68 66 94 CALM 30.07R FOG GREENSBORO CLOUDY 69 66 90 E6 30.07R ROCKY MOUNT CLOUDY 69 68 96 N7 30.04R FOG FAYETTEVILLE MOSUNNY 70 67 90 N8 30.03R CHARLOTTE CLOUDY 69 64 84 NE6 30.06R $$ VAZ100-251300- MARINE STATION/POSITION TIME TEMP WIND PRES WAVE SWELL AIR SEA DIR/SP/G HT/PER HT/PER (UTC) (F) (DEG/KT/KT) (MB) (FT/S) (FT/S) 44066 TX TWR #4 1200 72 73 20/ 12/ 14 1013.9R 2/ 7 2/ 7 CAPE MAY NJ 1200 70 76 340/ 6/ 11 1015.7R LEWES DE 1200 70 72 350/ 12/ 14 1016.1R 15NM E FENWICK I 1200 71 76 1015.8R 3/ 5 OCEAN-CITY-INLET 1200 67 70 340/ 8/ 10 1015.6R WACHAPREAGUE VA 1200 70 79 340/ 4/ 7 1016.3R THOMAS POINT MD 1200 67 78 350/ 12/ 13 1017.8R GOOSES REEF MD 1200 72 10/ 12/ 14 1017.5R COVE POINT MD 1200 71 20/ 13/ 15 1016.9R SOLOMONS ISLAND 1200 80 N/A BISHOPS HEAD MD 1200 69 76 360/ 7/ 9 1016.3S PINEY POINT MD 1200 30/ 4/ 5 N/A POTOMAC MD 1200 74 20/ 10/ 14 1016.2S CAMBRIDGE MD 1200 69 79 360/ 10/ 13 1016.7R LEWISETTA VA 1200 74 79 30/ 7/ 12 1016.9R RAPPAHANNOCK LGT 1200 360/ 16/ 18 1017.1R STINGRAY PT 1200 75 10/ 14/ 16 1017.2R YORK RVR RNG VA 1200 73 10/ 14/ 16 1016.0R YORKTOWN VA 1200 71 80 360/ 10/ 12 1016.6R JAMESTOWN VA 1200 68 10/ 4/ 8 N/A DOMINION TERM VA 1200 73 20/ 3/ 8 1016.5R KIPTOPEKE VA 1200 80 20/ 8/ 10 N/A CHES BAY BRIDGE 1200 74 79 10/ 14/ 16 1015.6R CAPE HENRY VA 1200 73 10/ 15/ 16 1014.9R WILLOUBY STN VA 1200 350/ 12/ 13 1015.7R S CRANEY ISL VA 1200 310/ 7/ 10 1016.5R CAPE HENRY BUOY 1200 77 N/A 2/ 7 1ST LANDING BUOY 1200 75 10/ 14/ 17 1015.8R CAPE CHARLES BUO 1200 75 N/A 2/ 7 OFFSHORE WE BUOY 1200 78 N/A 2/ 7 64NM E OF VA BCH 1200 77 78 350/ 10/ 12 1014.6R 3/ 7 2/ 7 DUCK PIER NC 1200 73 75 330/ 11/ 12 1015.2R 44056 DUCK FRF 1200 N/A 2/ 4 OREGON INLET NC 1200 74 77 340/ 8/ 11 1015.6R HATTERAS NC 1200 75 79 350/ 14/ 17 1016.3R DIAMOND SHLS NC 1200 VRB 12/ 14 1015.6R 3/ 7 2/ 7 CAPE LOOKOUT NC 1100 71 350/ 10/ 14 1015.5R $$

USA.gov is the U.S. government's official web portal to all federal, state and local government web resources and services.